Farmville, Virginia, United States (23901)
Lat: 37.30N, Lon: 78.39W
Wx Zone: VAZ060
Local Info
Past Weather Observations for Today

NOTE: This archive is for the closest National Weather Service station to Farmville. Information may differ from the station used for current weather conditions.

Click here for Long-term Archive

Time Weather Temperature Dewpoint Humidity Pressure Winds Precip Visibility
13:35
Clear
46°F / 8°C 9°F / -13°C 21% 30.42 in
(1030 mb)
N 5.8 mph
(N 9 kph)
- 10SM
13:15
Clear
46°F / 8°C 9°F / -13°C 21% 30.42 in
(1030 mb)
N 5.8 mph
(N 9 kph)
- 10SM
12:55
Clear
46°F / 8°C 9°F / -13°C 21% 30.42 in
(1030 mb)
N 4.6 mph
(N 7 kph)
- 10SM
12:35
Clear
46°F / 8°C 10°F / -12°C 23% 30.42 in
(1030 mb)
NNE 5.8 mph
(NNE 9 kph)
- 10SM
12:15
Clear
45°F / 7°C 9°F / -13°C 23% 30.45 in
(1031 mb)
Calm - 10SM
10:55
Clear
43°F / 6°C 9°F / -13°C 24% 30.45 in
(1031 mb)
N 5.8 mph
(N 9 kph)
- 10SM
10:35
Clear
43°F / 6°C 10°F / -12°C 26% 30.45 in
(1031 mb)
NW 5.8 mph
(NW 9 kph)
- 10SM
10:15
Clear
41°F / 5°C 9°F / -13°C 26% 30.45 in
(1031 mb)
Calm - 10SM
09:55
Clear
41°F / 5°C 10°F / -12°C 28% 30.42 in
(1030 mb)
W 5.8 mph
(W 9 kph)
- 10SM
09:35
Clear
41°F / 5°C 10°F / -12°C 28% 30.42 in
(1030 mb)
W 5.8 mph
(W 9 kph)
- 10SM
09:15
Clear
41°F / 5°C 12°F / -11°C 31% 30.42 in
(1030 mb)
Calm - 10SM
08:55
Clear
39°F / 4°C 12°F / -11°C 33% 30.42 in
(1030 mb)
N 4.6 mph
(N 7 kph)
- 10SM
08:35
Clear
39°F / 4°C 12°F / -11°C 33% 30.39 in
(1029 mb)
NNW 4.6 mph
(NNW 7 kph)
- 10SM
08:15
Clear
37°F / 3°C 12°F / -11°C 35% 30.39 in
(1029 mb)
Calm - 10SM
07:55
Clear
34°F / 1°C 12°F / -11°C 41% 30.36 in
(1028 mb)
NNW 3.5 mph
(NNW 6 kph)
- 10SM
07:35
Clear
32°F / 0°C 12°F / -11°C 44% 30.36 in
(1028 mb)
Calm - 10SM
07:15
Clear
30°F / -1°C 14°F / -10°C 51% 30.36 in
(1028 mb)
NW 3.5 mph
(NW 6 kph)
- 10SM
06:55
Clear
30°F / -1°C 16°F / -9°C 55% 30.33 in
(1027 mb)
Calm - 10SM
06:35
Clear
30°F / -1°C 14°F / -10°C 51% 30.33 in
(1027 mb)
W 3.5 mph
(W 6 kph)
- 10SM
06:15
Clear
30°F / -1°C 14°F / -10°C 51% 30.3 in
(1026 mb)
Calm - 10SM
05:55
Clear
30°F / -1°C 16°F / -9°C 55% 30.3 in
(1026 mb)
Calm - 10SM
05:35
Clear
30°F / -1°C 12°F / -11°C 47% 30.27 in
(1025 mb)
Calm - 10SM
05:15
Clear
32°F / 0°C 12°F / -11°C 44% 30.27 in
(1025 mb)
Calm - 10SM
04:55
Clear
34°F / 1°C 12°F / -11°C 41% 30.27 in
(1025 mb)
Calm - 10SM
04:35
Clear
36°F / 2°C 12°F / -11°C 38% 30.24 in
(1024 mb)
Calm - 10SM
04:15
Clear
34°F / 1°C 14°F / -10°C 44% 30.24 in
(1024 mb)
Calm - 10SM
03:55
Clear
34°F / 1°C 14°F / -10°C 44% 30.21 in
(1023 mb)
SSW 3.5 mph
(SSW 6 kph)
- 10SM
03:35
Clear
32°F / 0°C 14°F / -10°C 47% 30.21 in
(1023 mb)
Calm - 10SM
03:15
Clear
34°F / 1°C 12°F / -11°C 41% 30.21 in
(1023 mb)
Calm - 10SM
02:55
Clear
36°F / 2°C 12°F / -11°C 38% 30.21 in
(1023 mb)
SSW 3.5 mph
(SSW 6 kph)
- 10SM
02:35
Clear
36°F / 2°C 14°F / -10°C 41% 30.18 in
(1022 mb)
SSW 4.6 mph
(SSW 7 kph)
- 10SM
02:15
Clear
32°F / 0°C 16°F / -9°C 51% 30.18 in
(1022 mb)
SW 4.6 mph
(SW 7 kph)
- 10SM
01:55
Clear
32°F / 0°C 16°F / -9°C 51% 30.18 in
(1022 mb)
Calm - 10SM
01:35
Clear
34°F / 1°C 14°F / -10°C 44% 30.15 in
(1021 mb)
Calm - 10SM
01:15
Clear
37°F / 3°C 16°F / -9°C 41% 30.15 in
(1021 mb)
Calm - 10SM
00:55
Clear
37°F / 3°C 16°F / -9°C 41% 30.15 in
(1021 mb)
Calm - 10SM
00:35
Clear
37°F / 3°C 18°F / -8°C 45% 30.12 in
(1020 mb)
Calm - 10SM
00:15
Clear
39°F / 4°C 18°F / -8°C 42% 30.12 in
(1020 mb)
Calm - 10SM
Time Weather Temperature Dewpoint Humidity Pressure Winds Precip Visibility


Weather for websites

WeatherForYou.com, LLC is not responsible for any damages or problems caused by this service. Current weather conditions are obtained from the closest station including government and personal stations which may have varying degrees of accuracy. Weather forecasts are derived from the NOAA NDFD. Like all things, this site belongs to Jesus Christ... He just trusts me to maintain it. If you have any questions or comments email webmaster@weatherforyou.com

Copyright © 2014, WeatherForYou.com LLC. All rights reserved.